FW4624 Weather Reports


time (UTC)temp
C
wind
direction
speed
KPH
gust
KPH
rain 1hr
cm
rain 24hr
cm
rain mn
cm
humidity
%
barometer
mb
20260503215550 15 272 1.6 4.8 0.00 0.00 0.00 65 1014.0
20260503215051 15 276 1.6 6.4 0.00 0.00 0.00 65 1013.9
20260503214549 15 283 3.2 6.4 0.00 0.00 0.00 65 1014.0
20260503214049 15 284 1.6 3.2 0.00 0.00 0.00 66 1013.8
20260503213549 15 284 0.0 3.2 0.00 0.00 0.00 67 1013.9
20260503213052 16 284 0.0 4.8 0.00 0.00 0.00 68 1014.0
20260503212549 16 284 1.6 4.8 0.00 0.00 0.00 69 1014.0
20260503212048 16 284 1.6 4.8 0.00 0.00 0.00 69 1014.1
20260503211549 16 284 1.6 3.2 0.00 0.00 0.00 69 1014.0
20260503211048 16 284 1.6 3.2 0.00 0.00 0.00 70 1013.9
20260503210548 16 284 1.6 3.2 0.00 0.00 0.00 70 1014.0
20260503210048 16 284 1.6 4.8 0.00 0.00 0.00 70 1014.0
20260503205548 16 284 1.6 4.8 0.00 0.00 0.00 70 1014.0
20260503205048 16 284 0.0 3.2 0.00 0.00 0.00 69 1014.1
20260503204548 16 284 0.0 3.2 0.00 0.00 0.00 69 1014.1
20260503204047 16 284 0.0 3.2 0.00 0.00 0.00 68 1014.0
20260503203548 16 284 0.0 3.2 0.00 0.00 0.00 66 1014.1
20260503203053 16 284 1.6 4.8 0.00 0.00 0.00 65 1014.0
20260503202548 16 284 1.6 3.2 0.00 0.00 0.00 64 1014.1
20260503202048 17 284 0.0 0.0 0.00 0.00 0.00 63 1014.0
20260503201547 17 284 0.0 0.0 0.00 0.00 0.00 62 1013.8
20260503201046 17 284 0.0 0.0 0.00 0.00 0.00 61 1014.0
20260503200546 17 284 0.0 1.6 0.00 0.00 0.00 61 1014.0
20260503200046 17 284 0.0 1.6 0.00 0.00 0.00 61 1014.0
20260503195546 17 284 0.0 0.0 0.00 0.00 0.00 60 1013.9
20260503195046 17 284 0.0 1.6 0.00 0.00 0.00 60 1013.9
20260503194546 17 284 0.0 3.2 0.00 0.00 0.00 59 1013.7
20260503194047 17 284 0.0 4.8 0.00 0.00 0.00 58 1013.6
20260503193546 18 284 0.0 4.8 0.00 0.00 0.00 58 1013.6
20260503193048 18 300 1.6 4.8 0.00 0.00 0.00 57 1013.5
20260503192545 18 319 1.6 3.2 0.00 0.00 0.00 57 1013.5
20260503192047 18 319 0.0 3.2 0.00 0.00 0.00 58 1013.3
20260503191545 18 319 0.0 4.8 0.00 0.00 0.00 58 1013.1
20260503191045 18 319 1.6 8.0 0.00 0.00 0.00 57 1013.0
20260503190548 18 319 1.6 8.0 0.00 0.00 0.00 55 1012.9
20260503190046 18 242 0.0 3.2 0.00 0.00 0.00 54 1012.8
20260503185544 18 242 0.0 3.2 0.00 0.00 0.00 53 1012.8
20260503185048 18 242 0.0 1.6 0.00 0.00 0.00 52 1012.7
20260503184552 18 242 0.0 1.6 0.00 0.00 0.00 52 1012.8
20260503184044 18 242 0.0 1.6 0.00 0.00 0.00 51 1012.7
20260503183546 18 242 0.0 3.2 0.00 0.00 0.00 50 1012.6
20260503183045 18 242 1.6 3.2 0.00 0.00 0.00 49 1012.6
20260503182547 18 242 0.0 1.6 0.00 0.00 0.00 50 1012.6
20260503182043 18 242 0.0 1.6 0.00 0.00 0.00 50 1012.5
20260503181543 18 242 0.0 1.6 0.00 0.00 0.00 51 1012.4
20260503181043 18 242 0.0 1.6 0.00 0.00 0.00 49 1012.5
20260503180546 18 242 0.0 1.6 0.00 0.00 0.00 52 1012.4
20260503180052 18 242 0.0 1.6 0.00 0.00 0.00 55 1012.3
20260503175542 18 242 0.0 3.2 0.00 0.00 0.00 57 1012.2
20260503175042 19 242 0.0 3.2 0.00 0.00 0.00 53 1012.2
20260503174545 20 242 0.0 4.8 0.00 0.00 0.00 47 1012.2
20260503174045 20 242 1.6 8.0 0.00 0.00 0.00 46 1012.3
20260503173543 20 242 1.6 8.0 0.00 0.00 0.00 43 1012.3
20260503173049 20 244 1.6 4.8 0.00 0.00 0.00 43 1012.3
20260503172542 21 244 3.2 6.4 0.00 0.00 0.00 42 1012.4
20260503172041 21 244 3.2 6.4 0.00 0.00 0.00 42 1012.3
20260503171542 21 244 3.2 8.0 0.00 0.00 0.00 41 1012.4
20260503171041 21 243 4.8 8.0 0.00 0.00 0.00 41 1012.4
20260503170541 21 244 3.2 8.0 0.00 0.00 0.00 41 1012.4
20260503150535 23 224 14.5 22.5 0.00 0.00 0.00 41 1012.7
20260503131026 22 188 9.7 24.1 0.00 0.00 0.00 39 1013.6
20260503130525 22 257 12.9 24.1 0.00 0.00 0.00 38 1013.6
20260503110512 20 180 4.8 8.0 0.00 0.00 0.00 54 1014.4
20260503081547 15 183 1.6 3.2 0.00 0.00 0.00 73 1015.3
20260503081051 15 183 1.6 3.2 0.00 0.00 0.00 71 1015.4
20260503080550 15 183 0.0 1.6 0.00 0.00 0.00 72 1015.3
20260503072547 15 181 4.8 9.7 0.00 0.00 0.00 72 1016.0
20260503072043 15 180 4.8 11.3 0.00 0.00 0.00 72 1016.0
20260503071549 15 181 6.4 11.3 0.00 0.00 0.00 73 1016.0
20260503071041 15 184 4.8 11.3 0.00 0.00 0.00 77 1016.0
20260503070542 14 196 3.2 11.3 0.00 0.00 0.00 76 1015.9
20260503060104 12 207 0.0 3.2 0.00 0.00 0.00 83 1015.2
20260503055032 11 207 0.0 3.2 0.00 0.00 0.00 84 1015.2
20260503054537 11 207 1.6 3.2 0.00 0.00 0.00 84 1015.0
20260503054030 11 207 0.0 1.6 0.00 0.00 0.00 84 1014.9
20260503053530 11 207 0.0 1.6 0.00 0.00 0.00 84 1014.9
20260503053033 11 207 0.0 1.6 0.00 0.00 0.00 85 1015.0
20260503052530 11 207 0.0 1.6 0.00 0.00 0.00 86 1015.0
20260503052032 11 207 0.0 1.6 0.00 0.00 0.00 87 1015.0
20260503051529 10 207 0.0 3.2 0.00 0.00 0.00 88 1015.1
20260503051032 10 207 0.0 3.2 0.00 0.00 0.00 88 1015.0
20260503050529 10 207 0.0 1.6 0.00 0.00 0.00 89 1014.9
20260503050033 9 207 0.0 1.6 0.00 0.00 0.00 89 1014.9
20260503045529 9 207 0.0 1.6 0.00 0.00 0.00 89 1014.9
20260503045028 8 207 0.0 1.6 0.00 0.00 0.00 90 1014.8
20260503044532 8 207 0.0 3.2 0.00 0.00 0.00 90 1014.8
20260503044029 8 207 0.0 3.2 0.00 0.00 0.00 90 1014.7
20260503043529 8 207 1.6 3.2 0.00 0.00 0.00 90 1014.7
20260503043039 8 207 0.0 1.6 0.00 0.00 0.00 90 1014.7
20260503042530 8 207 0.0 1.6 0.00 0.00 0.00 90 1014.8
20260503042027 8 207 0.0 1.6 0.00 0.00 0.00 90 1014.7
20260503041526 8 207 0.0 1.6 0.00 0.00 0.00 90 1014.7
20260503041026 8 207 0.0 0.0 0.00 0.00 0.00 90 1014.8
20260503040526 7 207 0.0 1.6 0.00 0.00 0.00 89 1014.8
20260503040027 8 207 0.0 3.2 0.00 0.00 0.00 89 1014.7
20260503035525 8 207 0.0 1.6 0.00 0.00 0.00 89 1014.6
20260503035025 8 207 0.0 1.6 0.00 0.00 0.00 88 1014.8
20260503034525 8 207 0.0 1.6 0.00 0.00 0.00 89 1014.7
20260503034025 8 207 0.0 1.6 0.00 0.00 0.00 89 1014.8
20260503033527 8 207 0.0 3.2 0.00 0.00 0.00 88 1014.7
20260503033031 8 207 0.0 1.6 0.00 0.00 0.00 89 1014.7
20260503032523 8 207 0.0 3.2 0.00 0.00 0.00 88 1014.8
20260503032022 8 207 1.6 3.2 0.00 0.00 0.00 89 1014.9
20260503031522 8 207 0.0 3.2 0.00 0.00 0.00 89 1014.9
20260503031022 8 207 0.0 1.6 0.00 0.00 0.00 89 1014.9
20260503030520 8 207 0.0 0.0 0.00 0.00 0.00 88 1014.9
20260503030019 8 207 0.0 0.0 0.00 0.00 0.00 88 1014.9
20260503025520 8 207 0.0 0.0 0.00 0.00 0.00 88 1014.9
20260503025018 8 207 0.0 0.0 0.00 0.00 0.00 88 1014.9
20260503024525 8 207 0.0 0.0 0.00 0.00 0.00 88 1014.9
20260503024017 8 207 0.0 1.6 0.00 0.00 0.00 87 1015.1
20260503023517 9 207 0.0 3.2 0.00 0.00 0.00 87 1015.0
20260503023015 9 207 0.0 4.8 0.00 0.00 0.00 87 1015.1
20260503022513 9 207 1.6 4.8 0.00 0.00 0.00 86 1015.1
20260503022014 9 207 0.0 3.2 0.00 0.00 0.00 86 1015.1
20260503021535 10 207 1.6 3.2 0.00 0.00 0.00 86 1015.1
20260503021012 9 207 0.0 1.6 0.00 0.00 0.00 85 1015.1
20260503020511 9 207 0.0 0.0 0.00 0.00 0.00 85 1015.1
20260503020011 10 207 0.0 0.0 0.00 0.00 0.00 84 1015.1
20260503015516 10 207 0.0 0.0 0.00 0.00 0.00 84 1015.1
20260503015008 10 207 0.0 0.0 0.00 0.00 0.00 84 1015.2
20260503014508 10 207 0.0 0.0 0.00 0.00 0.00 84 1015.1
20260503014008 10 207 0.0 0.0 0.00 0.00 0.00 84 1015.1
20260503013508 10 207 0.0 0.0 0.00 0.00 0.00 84 1015.2
20260503013008 10 207 0.0 0.0 0.00 0.00 0.00 83 1015.1
20260503012507 10 207 0.0 0.0 0.00 0.00 0.00 83 1015.1
20260503012006 10 207 0.0 1.6 0.00 0.00 0.00 84 1015.2
20260503011506 10 207 0.0 1.6 0.00 0.00 0.00 83 1015.1
20260503011007 10 207 0.0 1.6 0.00 0.00 0.00 83 1015.2
20260503010504 11 207 0.0 1.6 0.00 0.00 0.00 82 1015.1
20260503010003 11 207 0.0 1.6 0.00 0.00 0.00 82 1015.2
20260503005504 11 207 0.0 1.6 0.00 0.00 0.00 83 1015.1
20260503005003 11 207 0.0 1.6 0.00 0.00 0.00 83 1015.2
20260503004502 11 207 0.0 1.6 0.00 0.00 0.00 83 1015.3
20260503004002 11 207 0.0 3.2 0.00 0.00 0.00 83 1015.3
20260503003502 11 207 0.0 3.2 0.00 0.00 0.00 83 1015.2
20260503003007 11 207 0.0 3.2 0.00 0.00 0.00 83 1015.3
20260503002502 11 207 0.0 3.2 0.00 0.00 0.00 84 1015.4
20260503002001 11 207 0.0 3.2 0.00 0.00 0.00 83 1015.5
20260503001626 11 207 1.6 3.2 0.00 0.00 0.00 84 1015.4
20260503001100 11 207 0.0 1.6 0.00 0.00 0.00 84 1015.5
20260503000558 11 207 0.0 0.0 0.00 0.00 0.00 82 1015.5
20260503000058 11 207 0.0 3.2 0.00 0.00 0.00 81 1015.5
20260502235558 11 207 0.0 3.2 0.00 0.00 0.00 81 1015.6
20260502235057 11 207 1.6 3.2 0.00 0.00 0.00 81 1015.5
20260502234557 11 207 0.0 0.0 0.00 0.00 0.00 82 1015.6
20260502234056 11 207 0.0 1.6 0.00 0.00 0.00 81 1015.7
20260502233557 11 207 0.0 1.6 0.00 0.00 0.00 82 1015.7
20260502233056 11 207 0.0 0.0 0.00 0.00 0.00 81 1015.7
20260502232557 11 207 0.0 0.0 0.00 0.00 0.00 80 1015.7
20260502232055 11 207 0.0 0.0 0.00 0.00 0.00 81 1015.7
20260502231554 11 207 0.0 0.0 0.00 0.00 0.00 80 1015.8
20260502231053 11 207 0.0 0.0 0.00 0.00 0.00 79 1015.8
20260502230553 12 207 0.0 0.0 0.00 0.00 0.00 79 1015.8
20260502230051 12 207 0.0 0.0 0.00 0.00 0.00 79 1015.8
20260502225550 12 207 0.0 0.0 0.00 0.00 0.00 78 1015.8
20260502225050 12 207 0.0 1.6 0.00 0.00 0.00 76 1015.7
20260502224548 12 207 0.0 3.2 0.00 0.00 0.00 77 1015.8
20260502224048 12 207 0.0 3.2 0.00 0.00 0.00 76 1015.7
20260502223547 13 207 0.0 1.6 0.00 0.00 0.00 75 1015.7
20260502223047 13 207 0.0 3.2 0.00 0.00 0.00 75 1015.7
20260502222546 13 207 0.0 3.2 0.00 0.00 0.00 75 1015.8
20260502222044 13 207 0.0 1.6 0.00 0.00 0.00 75 1015.7
20260502221544 13 207 0.0 1.6 0.00 0.00 0.00 76 1015.7
20260502221044 13 207 0.0 1.6 0.00 0.00 0.00 74 1015.7
20260502220543 13 207 0.0 1.6 0.00 0.00 0.00 75 1015.7
20260502220042 13 207 0.0 1.6 0.00 0.00 0.00 75 1015.7